Weather History for Presque Isle, ME

Change the Weather History Date:

Wednesday, January 22, 2014

  Actual Average Record
Temperature  
Mean Temperature -3 °F -  
Max Temperature 3 °F 21 °F 43 °F (1957)
Min Temperature -9 °F 0 °F -33 °F (1934)
Degree Days  
Heating Degree Days 68    
Moisture  
Dew Point -17 °F    
Average Humidity 53    
Maximum Humidity 71    
Minimum Humidity 22    
Precipitation  
Precipitation 0.00 in - - ()
Sea Level Pressure  
Sea Level Pressure 29.81 in    
Wind  
Wind Speed 10 mph (NNW)    
Max Wind Speed 18 mph    
Max Gust Speed 22 mph    
Visibility 10 miles    
Events      
Averages and records for this station are not official NWS values.
T = Trace of Precipitation, MM = Missing Value Source: NWS Daily Summary

Daily Weather History Graph

Daily Weather History Graph

Search for Another Location

Airport:

Trip Planner

Search our weather history database for the weather conditions in past years. The results will help you decide how hot, cold, wet, or windy it might be!

Date:

Astronomy

Jan. 22, 2014 Rise Set
Actual Time 7:07 AM EST 4:20 PM EST
Civil Twilight 6:33 AM EST 4:54 PM EST
Nautical Twilight 5:56 AM EST 5:31 PM EST
Astronomical Twilight 5:20 AM EST 6:07 PM EST
Moon 11:16 PM EST (1/22) 9:41 AM EST (1/22)
Length of Visible Light 10h 20m
Length of Day
9h 13m
Waning Gibbous, 65% of the Moon is Illuminated
Jan 22
Waning Gibbous
Jan 24
Last Quarter
Jan 30
New
Feb 6
First Quarter
Feb 14
Full

Hourly Weather History & Observations

Time (EST) Temp. Windchill Dew Point Humidity Pressure Visibility Wind Dir Wind Speed Gust Speed Precip Events Conditions
12:15 AM -5.8 °F - -20.2 °F 50% 30.02 in 10.0 mi Calm Calm - N/A   Clear
12:35 AM -7.6 °F -18.8 °F -22.0 °F 50% 30.02 in 10.0 mi NW 4.6 mph - N/A   Clear
12:55 AM -7.6 °F -16.5 °F -18.4 °F 59% 30.01 in 10.0 mi NW 3.5 mph - N/A   Clear
1:15 AM -7.6 °F -16.5 °F -18.4 °F 59% 30.00 in 10.0 mi NNW 3.5 mph - N/A   Clear
1:35 AM -7.6 °F -22.1 °F -23.8 °F 45% 29.99 in 10.0 mi North 6.9 mph - N/A   Clear
1:55 AM -7.6 °F -23.4 °F -14.8 °F 71% 29.99 in 10.0 mi North 8.1 mph - N/A   Clear
2:15 AM -7.6 °F -20.6 °F -18.4 °F 59% 29.98 in 10.0 mi North 5.8 mph - N/A   Clear
2:35 AM -7.6 °F -22.1 °F - N/A% 29.96 in 10.0 mi North 6.9 mph - N/A   Clear
2:55 AM -7.6 °F -20.6 °F - N/A% 29.96 in 10.0 mi North 5.8 mph - N/A   Clear
3:15 AM -7.6 °F -25.7 °F - N/A% 29.97 in 10.0 mi North 10.4 mph - N/A   Clear
3:35 AM -7.6 °F -26.6 °F -29.2 °F 34% 29.97 in 10.0 mi North 11.5 mph - N/A   Clear
3:55 AM -7.6 °F -25.7 °F -23.8 °F 45% 29.96 in 10.0 mi North 10.4 mph - N/A   Clear
4:15 AM -7.6 °F -26.6 °F -20.2 °F 54% 29.95 in 10.0 mi North 11.5 mph - N/A   Clear
4:35 AM -7.6 °F -23.4 °F -16.6 °F 65% 29.97 in 10.0 mi North 8.1 mph - N/A   Clear
4:55 AM -7.6 °F -26.6 °F -18.4 °F 59% 29.94 in 10.0 mi North 11.5 mph - N/A   Clear
5:15 AM -7.6 °F -26.6 °F -20.2 °F 54% 29.93 in 10.0 mi North 11.5 mph - N/A   Clear
5:35 AM -7.6 °F -25.7 °F -18.4 °F 59% 29.95 in 10.0 mi North 10.4 mph - N/A   Clear
5:55 AM -7.6 °F -26.6 °F -18.4 °F 59% 29.93 in 10.0 mi North 11.5 mph - N/A   Clear
6:15 AM -7.6 °F -24.6 °F -18.4 °F 59% 29.94 in 10.0 mi North 9.2 mph - N/A   Clear
6:35 AM -7.6 °F -25.7 °F -18.4 °F 59% 29.93 in 10.0 mi NNW 10.4 mph - N/A   Clear
6:55 AM -7.6 °F -26.6 °F -18.4 °F 59% 29.92 in 10.0 mi NNW 11.5 mph - N/A   Clear
7:15 AM -9.4 °F -28.9 °F -20.2 °F 59% 29.91 in 10.0 mi NNW 11.5 mph - N/A   Clear
7:35 AM -9.4 °F -27.9 °F -18.4 °F 65% 29.91 in 10.0 mi NNW 10.4 mph - N/A   Clear
7:55 AM -9.4 °F -29.8 °F -18.4 °F 65% 29.90 in 10.0 mi North 12.7 mph - N/A   Clear
8:15 AM -9.4 °F -28.9 °F -20.2 °F 59% 29.91 in 10.0 mi North 11.5 mph - N/A   Clear
8:35 AM -7.6 °F -25.7 °F -18.4 °F 59% 29.92 in 10.0 mi North 10.4 mph - N/A   Clear
8:55 AM -7.6 °F -29.1 °F -20.2 °F 54% 29.92 in 10.0 mi North 15.0 mph - N/A   Clear
9:15 AM -7.6 °F -27.5 °F -20.2 °F 54% 29.91 in 10.0 mi North 12.7 mph - N/A   Clear
9:35 AM -7.6 °F -26.6 °F -20.2 °F 54% 29.91 in 10.0 mi North 11.5 mph 18.4 mph N/A   Clear
9:55 AM -7.6 °F -28.3 °F -20.2 °F 54% 29.91 in 10.0 mi North 13.8 mph - N/A   Clear
10:15 AM -5.8 °F -25.2 °F -18.4 °F 55% 29.88 in 10.0 mi North 12.7 mph - N/A   Clear
10:35 AM -5.8 °F -28.2 °F -16.6 °F 60% 29.86 in 10.0 mi North 17.3 mph - N/A   Clear
10:55 AM -5.8 °F -26.8 °F -16.6 °F 60% 29.84 in 10.0 mi North 15.0 mph - N/A   Clear
11:15 AM -5.8 °F -27.5 °F -18.4 °F 55% 29.82 in 10.0 mi North 16.1 mph - N/A   Clear
11:35 AM -4.0 °F -23.7 °F -20.2 °F 46% 29.79 in 10.0 mi North 13.8 mph - N/A   Clear
11:55 AM -4.0 °F -23.7 °F -20.2 °F 46% 29.77 in 10.0 mi NNW 13.8 mph - N/A   Clear
12:15 PM -2.2 °F -23.5 °F -16.6 °F 50% 29.75 in 10.0 mi NNW 17.3 mph - N/A   Clear
12:35 PM -2.2 °F -22.2 °F - N/A% 29.74 in 10.0 mi NNW 15.0 mph - N/A   Clear
12:55 PM -2.2 °F -21.5 °F - N/A% 29.71 in 10.0 mi North 13.8 mph - N/A   Clear
1:15 PM -0.4 °F -19.2 °F - N/A% 29.70 in 10.0 mi North 13.8 mph - N/A   Clear
1:35 PM -0.4 °F -19.9 °F -27.4 °F 27% 29.71 in 10.0 mi North 15.0 mph - N/A   Clear
1:55 PM -0.4 °F -19.9 °F -20.2 °F 39% 29.70 in 10.0 mi North 15.0 mph - N/A   Clear
2:15 PM -0.4 °F -21.2 °F -14.8 °F 51% 29.70 in 10.0 mi North 17.3 mph 20.7 mph N/A   Partly Cloudy
2:35 PM -0.4 °F -21.7 °F -13.0 °F 55% 29.69 in 10.0 mi NNW 18.4 mph - N/A   Partly Cloudy
2:55 PM 1.4 °F -18.8 °F - N/A% 29.68 in 10.0 mi North 17.3 mph - N/A   Partly Cloudy
3:15 PM 1.4 °F -18.2 °F -11.2 °F 56% 29.68 in 10.0 mi NNW 16.1 mph - N/A   Partly Cloudy
3:35 PM 1.4 °F -18.2 °F -11.2 °F 56% 29.67 in 10.0 mi NNW 16.1 mph - N/A   Mostly Cloudy
3:55 PM 1.4 °F -18.8 °F -13.0 °F 51% 29.67 in 10.0 mi NNW 17.3 mph - N/A   Mostly Cloudy
4:15 PM -0.4 °F -19.9 °F -14.8 °F 51% 29.68 in 10.0 mi NNW 15.0 mph - N/A   Mostly Cloudy
4:35 PM -0.4 °F -19.9 °F -14.8 °F 51% 29.69 in 10.0 mi NNW 15.0 mph 20.7 mph N/A   Overcast
4:55 PM -0.4 °F -18.4 °F -14.8 °F 51% 29.70 in 10.0 mi NNW 12.7 mph - N/A   Mostly Cloudy
5:15 PM -0.4 °F -20.5 °F -14.8 °F 51% 29.69 in 10.0 mi NNW 16.1 mph 19.6 mph N/A   Partly Cloudy
5:35 PM -0.4 °F -19.2 °F -14.8 °F 51% 29.70 in 10.0 mi NNW 13.8 mph - N/A   Clear
5:55 PM -0.4 °F -16.7 °F -14.8 °F 51% 29.70 in 10.0 mi NNW 10.4 mph 17.3 mph N/A   Clear
6:15 PM -2.2 °F -21.5 °F -14.8 °F 55% 29.70 in 10.0 mi NNW 13.8 mph 19.6 mph N/A   Clear
6:35 PM -2.2 °F -21.5 °F -13.0 °F 60% 29.69 in 10.0 mi NNW 13.8 mph - N/A   Mostly Cloudy
6:55 PM -0.4 °F -19.2 °F -9.4 °F 66% 29.69 in 10.0 mi NNW 13.8 mph 21.9 mph N/A   Overcast
7:15 PM -0.4 °F -19.2 °F - N/A% 29.68 in 10.0 mi NNW 13.8 mph 18.4 mph N/A   Overcast
7:35 PM -0.4 °F -19.2 °F -31.0 °F 22% 29.68 in 10.0 mi NW 13.8 mph - N/A   Overcast
7:55 PM -0.4 °F -16.7 °F -31.0 °F 22% 29.68 in 10.0 mi NW 10.4 mph - N/A   Overcast
8:15 PM 1.4 °F -15.3 °F -22.0 °F 33% 29.68 in 10.0 mi NW 11.5 mph - N/A   Overcast
8:35 PM 1.4 °F -13.5 °F -13.0 °F 51% 29.68 in 10.0 mi NW 9.2 mph - N/A   Overcast
8:55 PM 1.4 °F -16.9 °F -9.4 °F 61% 29.67 in 10.0 mi NNW 13.8 mph 19.6 mph N/A   Overcast
9:15 PM 3.2 °F -14.6 °F -7.6 °F 61% 29.67 in 10.0 mi NNW 13.8 mph 17.3 mph N/A   Overcast
9:35 PM 3.2 °F -13.1 °F -5.8 °F 66% 29.67 in 10.0 mi NNW 11.5 mph 17.3 mph N/A   Overcast
9:55 PM 3.2 °F -14.6 °F - N/A% 29.67 in 10.0 mi NNW 13.8 mph 20.7 mph N/A   Overcast
10:15 PM 3.2 °F -13.9 °F -23.8 °F 28% 29.67 in 10.0 mi NW 12.7 mph 16.1 mph N/A   Overcast
10:35 PM 3.2 °F -13.1 °F -18.4 °F 36% 29.67 in 10.0 mi NW 11.5 mph - N/A   Overcast
10:55 PM 3.2 °F -13.9 °F -16.6 °F 39% 29.67 in 10.0 mi NW 12.7 mph 18.4 mph N/A   Overcast
11:15 PM 3.2 °F -11.3 °F -9.4 °F 56% 29.68 in 10.0 mi NW 9.2 mph - N/A   Overcast
11:35 PM 3.2 °F -12.2 °F -9.4 °F 56% 29.68 in 10.0 mi WNW 10.4 mph - N/A   Overcast
11:55 PM 3.2 °F -12.2 °F -5.8 °F 66% 29.68 in 10.0 mi WNW 10.4 mph - N/A   Overcast